SKYSAT-C11 (42987 NORAD) Tracking and Keplerian Element Data

This shows tracking and keplerian element data for the satellite.

Feedback or suggestion? Click here.




ElementValue
Catalog42987
NameSKYSAT-C11
Epoch Orbit21663
Epoch Day262.12987558
Epoch Year2021
RAAN17.4814
Inclination97.2686
Eccentricity0.0009067
Argument of Perigee184.0484
Mean Anonmoly176.069
Mean Motion15.40366491
Decay Rate2.695E-05
L11 42987U 17068A 21262.12987558 .00002695 00000-0 68740-4 0 9991
L22 42987 97.2686 17.4814 0009067 184.0484 176.0690 15.40366491216632

Live tracking and technical data element details for SKYSAT-C11 (NORAD 42987). SKYSAT-C11 can be tracked NOW for your location showing map with azimuth and elevation plus other details from your city location.

Track the satellite on the map from your city or location and see movement details for azimuth, elevation, latitude, longitude, range, height, and movement on the map or in text.







IsCatalogInMostPopularTable: catalog: 42987, numindb: 542
Update: records affected: 1



GetName: 42987 SKYSAT-C11

Hit Count: updated at: Sun, 26 Sep 2021 01:14:42 GMT